User: anonymous   Login
Location: Unspecified
(0.0000°N, 0.0000°E)
Time: 18:07:44
(UTC+00:00)
Language:

HULIANWANG DIGUI-12 - Orbit

View from above orbital plane
View from above orbital plane
View from above satellite
View from above satellite

Ground track
Ground track

The orbit is defined by the following mean orbital elements,

1 62972U          26145.53941361 +.00000000 +00000-0 +55282-4 0 00005
2 62972  50.0034 317.1828 0001291  98.2650 261.8369 13.29321793    08
Epoch (UTC): 25 May 2026 12:56:45
Eccentricity: 0.0001291
inclination: 50.0034°
perigee height: 1148 km
apogee height: 1150 km
right ascension of ascending node: 317.1828°
argument of perigee: 98.2650°
revolutions per day: 13.29321793
mean anomaly at epoch: 261.8369°

The dashed part of the orbit path shows where the satellite is in the earth's shadow,  

DLR